RH
45 44 42 41 40 40 42 42 37 25 22 20 18 17 17 18 19 21 23 25 24 23 19 16 14 15 14 14 13 11 11 12 13 13 14 15 16 16 16 14 14 15 14 14 16 15 17
45 46 44 43 43 42 40 39 40 36 30 24 24 22 20 20 22 24 24 24 23 22 20 19 17 14 15 15 12 12 12 13 14 15 15 16 18 18 17 14 14 15 16 18 19 19 18
41 44 46 46 44 43 42 40 38 37 36 34 30 25 24 25 26 25 25 24 23 22 22 21 18 17 15 15 14 14 14 14 16 17 16 18 19 19 19 16 18 21 19 17 18 17 18
46 43 45 45 47 46 43 41 39 37 36 35 33 32 31 30 27 26 25 24 24 23 22 21 20 18 16 16 15 15 16 16 17 18 18 19 20 20 20 18 18 24 18 16 18 18 19
52 46 46 46 44 43 44 44 41 39 38 36 34 32 31 30 30 30 29 28 26 26 25 22 22 20 18 18 16 16 17 18 18 19 20 20 21 21 23 21 19 20 19 18 18 18 24
58 52 44 44 47 46 42 41 42 43 41 38 36 34 32 31 30 29 28 28 27 27 27 23 24 23 23 21 19 17 18 19 19 20 21 22 22 23 26 24 22 22 22 21 20 23 22
54 55 53 45 42 44 46 45 41 40 40 38 37 35 33 32 32 30 28 27 27 26 27 26 26 26 26 24 22 21 19 20 20 22 23 24 24 25 29 30 26 25 25 24 23 26 25
48 46 48 52 51 45 42 41 43 42 40 38 37 36 36 34 31 31 30 30 29 28 27 27 27 27 27 28 25 24 22 22 22 24 24 25 25 27 28 29 29 29 28 27 28 27 30
27 35 37 39 41 44 46 46 43 39 37 38 38 37 36 36 34 33 32 31 30 30 28 26 28 26 26 26 26 26 24 24 26 26 27 27 28 28 29 31 33 34 31 30 30 30 31
9 9 11 15 19 26 33 38 42 43 42 39 36 36 35 35 34 36 38 36 35 32 27 28 29 28 28 27 28 29 29 29 28 29 30 29 29 31 33 35 37 34 33 31 31 34 47
12 11 10 8 8 8 8 12 21 30 35 39 40 40 40 37 37 34 33 35 35 33 47 35 30 29 30 31 32 32 33 32 33 34 33 31 31 33 36 38 40 37 34 35 36 43 56
15 15 14 14 13 12 10 9 8 8 12 20 27 29 31 33 33 36 38 36 31 32 38 34 31 32 33 36 36 33 34 34 35 34 34 34 36 37 39 41 41 39 39 42 47 55 73
16 16 16 16 16 16 15 14 13 11 9 8 8 13 20 24 27 29 30 31 33 44 35 39 34 37 38 34 28 31 35 36 38 40 37 40 38 39 41 42 43 42 46 47 67 80 69
17 17 18 18 18 18 17 17 16 15 14 13 11 9 8 9 15 21 25 30 37 27 37 41 45 42 34 30 36 36 38 36 35 39 44 45 44 40 43 43 44 48 49 48 67 70 63
19 19 19 20 20 20 20 19 18 17 16 16 15 14 13 10 9 10 18 32 25 26 33 44 43 40 33 38 42 42 43 38 40 38 43 46 49 47 47 47 48 51 50 52 54 57 73
22 21 20 20 20 19 18 17 17 16 16 14 14 14 15 14 12 11 12 15 19 26 34 34 40 44 42 40 47 50 49 39 41 45 47 48 50 49 49 51 51 53 53 57 60 93 98
23 23 22 22 21 21 20 20 19 18 18 17 16 15 14 15 14 14 15 14 14 13 14 29 37 47 48 49 51 48 49 41 42 48 52 53 54 51 54 53 51 54 57 60 61 88 96
24 25 26 40 59 68 65 70 72 67 56 35 24 23 20 19 18 16 15 14 14 15 22 36 42 46 49 45 37 41 49 51 52 58 61 61 61 60 58 60 60 60 61 63 72 90 96
71 83 71 95 91 85 87 84 81 74 66 59 50 47 46 41 37 25 21 22 27 42 51 53 58 55 43 50 59 62 68 63 63 63 67 68 66 64 62 63 63 68 68 69 76 86 98
78 96 99 88 90 84 87 85 90 91 77 69 77 86 77 75 73 66 54 39 39 53 60 56 51 59 76 76 79 81 79 80 79 84 83 89 82 77 74 68 72 84 97 98 99 99 95
96 97 100 95 85 88 86 87 80 81 92 88 98 98 95 89 81 82 87 77 66 62 63 79 81 80 85 93 93 93 84 87 83 85 95 96 91 88 85 85 90 96 97 98 99 93 99
100 100 99 99 100 99 90 83 80 71 76 91 99 99 98 98 84 88 94 96 94 86 87 84 84 87 95 97 94 99 100 100 100 99 100 98 98 99 88 89 84 88 78 82 87 87 100
49 66 64 57 68 91 99 99 97 82 93 91 97 100 100 99 98 97 89 88 91 93 90 86 94 95 93 81 96 95 96 98 100 100 100 100 100 100 96 99 99 99 90 86 70 99 100
5 5 6 7 9 11 12 16 33 67 95 100 99 100 99 97 99 99 100 99 99 100 99 99 92 99 87 94 98 96 99 98 100 92 100 99 99 99 97 100 97 73 72 71 78 88 92
24 24 24 23 22 22 20 16 14 14 14 24 35 71 94 88 99 99 96 99 98 98 99 99 99 90 100 99 99 99 94 97 74 62 70 78 93 99 97 96 79 72 75 75 82 85 94
23 25 26 26 26 26 26 26 28 29 27 24 29 29 31 39 59 86 98 98 98 98 96 87 87 96 95 100 99 98 96 90 90 86 73 68 81 100 99 96 90 63 64 77 90 96 96
24 26 26 26 25 24 25 26 28 29 27 27 31 35 37 34 24 26 29 43 43 82 97 97 95 97 98 98 99 99 98 98 92 88 86 83 94 98 99 97 93 85 94 98 98 84 88
11 12 14 17 20 22 26 26 28 30 34 31 32 32 28 27 24 26 27 28 42 90 99 68 71 85 95 97 96 89 85 79 86 90 92 91 90 95 99 98 96 96 97 95 96 96 96
2 3 4 8 11 12 13 15 16 18 24 32 33 40 48 44 29 25 24 24 26 28 25 27 63 93 97 98 83 92 98 98 97 96 86 98 98 98 98 97 97 98 90 95 95 96 96
Wind_Speed
14 14 15 15 15 16 16 16 15 13 12 12 11 10 9 8 7 6 5 3 3 3 3 4 4 4 4 5 4 4 5 5 6 5 4 4 4 2 4 5 5 3 5 4 5 5 9
13 14 14 15 15 15 15 15 14 13 11 10 9 8 7 5 4 3 2 1 1 1 1 1 1 2 2 2 3 3 3 4 3 3 2 2 3 3 4 6 5 3 4 4 4 9 8
10 12 13 13 13 14 13 12 12 12 11 10 8 6 4 3 3 2 1 1 1 2 2 3 2 1 1 1 1 1 1 1 2 2 2 3 3 4 6 6 7 5 5 9 5 11 12
8 10 11 12 12 11 11 11 10 10 10 9 8 7 5 3 2 1 1 2 3 3 4 4 3 3 2 1 1 1 0 1 1 3 3 4 5 5 6 5 7 5 7 13 12 12 13
6 7 9 9 10 10 10 9 9 9 9 8 7 6 5 4 3 3 4 3 4 5 6 6 5 4 4 3 3 2 2 3 3 4 5 5 6 6 7 6 6 7 10 14 14 16 17
4 6 6 7 7 8 8 8 8 8 8 7 7 6 5 5 4 4 5 5 6 7 8 6 6 3 5 6 5 5 4 4 5 6 7 7 7 8 6 7 6 10 14 15 16 15 19
4 5 5 6 6 7 7 7 8 8 7 6 6 6 6 5 5 6 6 7 8 9 6 10 11 9 10 8 6 6 6 5 6 7 8 9 9 9 8 9 11 14 16 17 17 19 18
5 5 6 7 7 7 7 7 7 7 6 6 6 6 6 6 6 6 7 8 8 9 10 12 12 11 11 9 7 6 6 7 7 9 10 12 12 8 11 11 13 17 18 21 18 13 23
7 8 8 8 9 9 8 8 8 7 7 7 7 7 7 7 6 7 7 8 8 10 13 10 6 5 5 6 5 6 6 7 10 10 11 13 14 10 10 13 15 19 19 17 17 19 23
7 8 10 11 11 11 11 10 10 10 9 9 9 9 9 8 8 8 8 9 10 12 10 5 2 2 0 1 2 5 8 8 11 11 13 11 7 11 14 18 18 18 16 16 18 21 11
8 9 10 11 11 12 12 12 12 12 12 11 12 12 11 11 10 11 10 11 12 12 5 3 2 2 1 3 6 8 12 14 15 15 14 13 14 15 19 16 17 16 14 18 21 25 23
12 12 13 13 13 14 14 14 13 13 13 14 13 14 14 13 13 12 12 12 12 5 5 3 3 3 4 9 14 16 15 14 13 13 11 17 18 17 15 19 16 15 15 20 21 13 4
15 16 16 16 16 17 18 17 17 17 15 15 15 15 15 14 14 13 13 12 8 6 4 4 4 9 14 17 19 14 10 6 9 12 17 18 19 20 13 15 14 10 15 7 4 1 6
18 19 19 19 20 20 21 21 21 20 19 17 17 16 16 16 15 15 13 12 8 8 9 12 14 15 19 20 11 8 10 17 16 18 18 13 7 8 8 13 14 13 15 6 5 4 8
22 23 23 23 23 24 24 24 24 24 24 21 20 19 18 17 16 16 16 14 9 13 13 14 16 23 17 9 12 14 18 21 13 8 9 8 9 7 14 18 16 12 12 12 13 19 7
25 25 26 26 26 27 28 28 27 26 26 26 23 21 20 19 18 18 19 23 20 17 18 21 23 14 16 18 14 11 13 12 16 13 13 15 22 20 18 18 21 21 19 10 9 4 5
26 26 26 27 27 28 28 29 29 28 27 27 26 23 21 20 20 21 23 25 24 23 23 21 25 24 23 20 22 25 16 18 21 21 20 23 24 25 21 21 22 22 27 22 19 10 4
27 26 27 28 28 29 30 30 31 31 29 29 29 27 21 21 22 23 26 26 27 26 23 24 26 26 27 26 28 27 24 21 17 22 24 24 29 33 37 33 33 31 29 27 17 8 13
28 27 28 28 29 30 28 28 30 31 31 30 29 29 26 25 26 26 25 25 25 26 26 28 28 25 26 22 15 16 19 18 21 23 15 15 14 14 13 15 19 22 23 24 29 25 22
30 30 30 30 32 34 33 31 30 29 30 29 27 24 22 24 27 29 30 31 30 30 29 29 32 27 19 23 24 24 29 25 20 24 27 29 32 30 29 27 25 25 25 23 25 22 26
36 36 37 36 38 36 39 36 35 35 28 27 28 31 28 22 21 21 23 24 20 19 23 20 25 27 29 32 31 31 32 33 32 31 28 24 37 37 41 41 41 45 46 41 38 46 35
36 38 42 40 37 39 42 43 37 33 29 30 29 28 31 34 30 28 30 36 36 34 34 39 36 30 28 34 32 34 32 31 33 34 33 33 37 39 48 43 40 41 42 38 38 42 47
41 43 45 45 45 43 41 42 42 38 32 34 31 31 33 36 37 35 36 37 37 33 33 34 31 29 32 31 32 39 39 38 37 37 38 40 39 31 39 28 25 30 34 34 32 32 33
34 35 36 38 40 41 43 44 43 42 39 38 33 33 34 43 40 29 31 33 38 36 33 34 35 36 34 30 35 39 38 38 41 45 40 45 41 37 29 24 11 29 32 32 26 31 34
20 21 21 22 23 24 26 29 32 35 37 38 39 40 41 51 50 48 44 42 38 38 41 40 38 39 36 38 41 36 37 33 39 37 31 33 39 32 18 24 23 34 35 30 25 28 29
19 19 20 22 23 24 24 24 23 23 26 28 30 35 37 44 53 30 32 27 32 39 45 47 42 42 41 39 31 20 18 25 13 9 12 19 31 39 25 12 11 28 28 26 27 26 23
23 22 22 23 24 24 25 25 25 25 26 25 20 25 31 39 48 45 44 44 43 45 44 27 24 28 33 33 36 29 21 18 20 28 25 27 27 37 40 25 21 32 30 19 12 16 14
29 29 29 30 31 30 30 29 29 28 27 27 21 24 27 35 41 38 37 39 35 31 37 46 50 48 29 21 18 26 28 36 33 37 35 34 30 29 27 31 22 16 9 10 9 6 8
29 31 31 30 29 28 28 28 30 31 32 34 29 27 30 34 37 33 34 37 38 35 38 39 48 40 18 17 24 18 13 14 15 11 15 14 18 9 11 10 16 14 13 10 16 17 15
Wind_Direction
51 52 51 50 50 51 50 51 56 64 73 81 92 102 109 117 123 124 124 116 92 79 74 76 83 96 106 90 99 95 93 83 72 58 47 28 21 6 13 359 4 356 341 319 333 331 330
49 49 49 46 46 47 48 49 51 55 63 74 82 89 100 110 113 118 115 97 71 36 17 23 49 90 124 128 106 103 92 79 64 53 21 6 358 356 349 349 344 325 341 346 326 335 337
45 49 47 45 44 44 45 48 51 54 59 61 64 72 84 98 105 106 88 22 0 347 346 344 352 297 25 76 140 140 120 83 41 355 344 338 331 338 338 337 334 323 314 341 322 330 331
37 43 45 43 42 43 44 44 46 50 50 53 58 60 60 57 49 341 310 309 309 310 313 317 329 316 235 269 261 263 279 272 313 325 322 323 317 313 318 318 320 304 306 327 326 324 323
27 33 37 36 37 37 39 41 42 42 43 40 36 34 36 34 30 17 6 346 324 319 314 296 304 289 239 281 277 285 288 273 279 299 306 307 311 308 306 303 312 313 305 317 322 320 317
12 17 20 22 20 22 27 30 35 38 37 34 26 16 7 360 356 343 337 333 322 315 310 284 296 278 273 278 281 272 277 281 282 293 302 300 303 300 295 296 306 311 309 308 310 305 306
332 349 353 358 358 357 0 8 20 25 24 22 19 9 358 349 344 336 330 322 308 304 290 286 282 277 274 268 271 278 274 281 283 295 298 301 300 301 293 300 305 312 307 304 315 300 299
306 315 324 331 332 334 334 339 349 355 360 3 5 5 358 351 349 344 337 329 320 307 299 290 284 278 268 262 266 283 281 283 293 298 300 300 303 300 303 300 304 307 304 309 309 300 305
298 304 310 310 311 314 317 321 327 329 329 332 337 341 344 347 342 341 336 328 322 315 310 292 279 274 267 252 257 281 283 281 299 295 298 297 293 300 301 304 304 304 299 306 299 301 302
300 300 301 301 302 303 303 305 309 310 313 316 319 321 322 326 323 328 330 328 328 325 309 274 242 229 132 312 282 307 306 303 300 297 298 295 286 300 298 301 301 299 309 306 302 303 297
290 294 297 299 301 300 298 296 295 297 300 302 304 306 311 314 321 324 324 323 325 326 347 257 224 196 199 322 312 310 304 297 293 290 287 285 291 292 292 296 299 294 301 301 298 292 292
284 288 291 295 297 296 298 299 297 294 291 290 291 294 297 300 304 308 313 316 319 308 260 250 251 223 285 308 308 303 295 289 285 282 281 290 284 282 282 293 288 290 300 306 293 282 272
279 283 286 290 292 294 295 295 295 295 294 294 289 288 289 291 295 297 301 307 311 229 271 249 238 292 299 308 304 293 285 277 291 298 295 290 284 280 273 276 278 274 306 304 311 267 239
281 282 284 287 289 291 292 292 293 293 292 293 293 293 291 289 287 287 289 290 248 253 249 275 283 284 300 302 284 273 275 290 291 290 284 282 274 258 270 275 271 286 281 234 271 248 275
280 283 285 287 288 289 289 291 291 293 293 292 293 294 291 289 287 284 279 264 254 267 263 264 277 292 288 265 271 281 289 294 268 274 260 274 259 241 280 277 266 278 246 256 251 273 295
279 282 283 285 287 288 289 290 291 292 293 293 291 290 290 287 284 277 268 264 260 260 263 270 275 268 264 274 270 276 291 273 272 263 263 268 279 284 275 261 263 255 257 243 229 271 250
278 280 283 285 286 288 289 291 291 291 292 293 293 293 291 285 279 274 266 268 273 271 270 268 269 265 268 263 266 277 266 269 271 270 267 271 272 278 269 263 273 266 256 249 251 223 233
278 281 284 286 287 289 290 293 294 293 293 294 292 292 286 283 276 271 270 274 274 272 264 261 263 266 268 273 274 269 259 257 266 275 271 268 272 271 276 278 278 271 258 256 233 235 225
281 281 280 283 287 293 294 297 297 295 296 295 293 290 287 279 271 271 268 264 261 258 257 262 266 266 278 272 259 258 263 263 271 270 265 275 259 276 287 273 263 257 260 261 255 248 244
285 288 285 285 286 292 287 290 288 296 292 294 294 294 287 283 276 271 268 266 256 257 261 261 267 272 262 257 258 270 273 277 265 268 268 274 260 252 252 264 281 275 271 254 250 250 264
283 282 280 283 287 285 287 286 286 290 292 286 290 289 285 274 279 276 269 260 258 253 256 251 260 262 270 272 275 271 281 281 277 276 270 251 255 257 263 268 272 275 273 270 261 264 249
282 278 280 279 275 282 287 290 290 290 291 279 291 287 282 285 275 266 257 257 261 263 263 267 268 271 266 265 269 276 270 273 271 272 268 268 269 279 281 282 282 280 278 275 266 264 261
280 280 281 281 281 281 282 283 289 297 291 278 279 274 270 271 270 275 273 270 269 274 270 267 272 267 261 267 271 272 272 272 268 271 272 271 268 266 270 280 279 271 277 278 275 258 253
290 289 288 288 288 287 284 281 279 276 273 271 260 258 267 268 264 258 259 266 269 271 266 265 268 265 273 276 273 274 271 272 270 275 258 261 260 260 262 272 247 264 276 277 256 252 256
322 321 319 315 310 306 301 295 289 282 276 270 270 269 267 268 270 266 267 266 259 258 258 259 262 267 267 272 272 272 283 278 277 281 266 252 250 247 246 244 253 267 271 267 255 262 253
336 332 329 327 324 322 318 315 312 306 297 287 276 271 270 266 270 281 271 268 268 267 268 267 262 260 264 259 256 255 257 266 264 256 244 251 244 235 238 238 251 266 271 263 257 254 258
319 315 313 312 313 314 315 315 314 312 309 309 309 295 283 277 272 275 273 273 270 274 280 282 276 264 266 257 247 246 248 255 261 258 260 242 245 235 239 249 255 264 265 246 227 267 252
315 311 307 304 302 301 299 300 300 300 300 300 303 296 293 289 286 286 284 280 276 260 261 268 275 280 270 252 274 276 264 263 258 255 257 258 256 248 247 246 248 243 254 242 261 220 263
317 311 307 306 307 307 306 303 297 293 291 291 292 290 288 288 294 296 295 296 290 278 271 264 259 254 237 271 283 280 254 278 255 264 276 268 249 246 238 279 276 275 274 277 278 267 271